Powrót do katalogu

STARLINK-35519

AktywnyŁącznośćVLEO
NORAD 65919·PAYLOAD·🇺🇸 United States

Wystrzelony Oct 8, 2025 z Vandenberg Space Force Base

Loading…

Następne Przeloty (najbliższe 24 godziny)

TLE

ŚwieżeSource: CelesTrak SupGP

Epoka: Sep 15, 2026, 03:26 UTC

1 65919C 25225K   26258.14354167  .00074654  00000+0  22057-2 0  2581
2 65919  53.1603   2.9381 0001348  89.4019 248.7993 15.34353461    18

Śledź STARLINK-35519 w czasie rzeczywistym z AllMySat

Download on the App Store